Regional Weather Roundup
Issued by NWS

Home | Current Version | Previous Version | Text Only | Print | Product List | Glossary On
Versions: 1 2 3 4 5 6 7 8 9 10 11 12 13 14 15 16 17 18 19 20 21 22 23 24 25 26 27 28 29 30 31 32 33 34 35 36 37 38 39 40 41 42 43 44 45 46 47 48 49 50
665
ASUS44 KJAN 241503
RWRMS

MISSISSIPPI HOURLY WEATHER ROUNDUP
NATIONAL WEATHER SERVICE JACKSON MS
1000 AM CDT THU APR 24 2014

NOTE: "FAIR: INDICATES FEW OR NO CLOUDS BELOW 12,000 FEET WITH NO
SIGNIFICANT WEATHER AND/OR OBSTRUCTIONS TO VISIBILITY.

MSZ001>002-007>008-010>013-018>021-025>028-034>036-241600-
NORTHWEST MISSISSIPPI

CITY           SKY/WX    TMP DP  RH WIND       PRES   REMARKS
CLARKSDALE       N/A     70  50  49 SE16      29.90F
CLEVELAND      FAIR      70  56  61 S13       29.89F
GREENWOOD      SUNNY     72  51  47 S12       29.93F
GREENVILLE     MOSUNNY   71  57  61 S9        29.89F
GRENADA        FAIR      70  48  46 SE9       29.94F
OLIVE BRANCH   PTSUNNY   64  46  52 SE9       29.92F
OXFORD         FAIR      66  45  45 S5        29.95S
TUNICA         PTSUNNY   68  46  45 S12G17    29.91F
$$

MSZ003>006-009-014>017-022>024-029>033-037>039-241600-
NORTHEAST MISSISSIPPI

CITY           SKY/WX    TMP DP  RH WIND       PRES   REMARKS
BELMONT        FAIR      71  46  39 S8        29.97S
COLUMBUS AFB   PTSUNNY   71  47  43 SE8       29.98S
CORINTH        FAIR      68  43  40 S9        29.95F
GOLDN TRIANGLE MOSUNNY   70  46  43 SE10      30.01R
STARKVILLE     FAIR      68  50  52 S7        29.97F
TUPELO         MOSUNNY   68  47  46 S12       29.96F
$$

MSZ040-058-241600-
CENTRAL MISSISSIPPI

CITY           SKY/WX    TMP DP  RH WIND       PRES   REMARKS
JACKSON INTL   SUNNY     74  59  59 S5        29.96S
JACKSON HAWKNS SUNNY     75  59  57 VRB3      29.96S
MERIDIAN KEY   MOSUNNY   72  58  61 VRB3      29.98R
MERIDIAN NAS   MOSUNNY   71  55  56 CALM      29.98S
RAYMOND        FAIR      73  68  83 S5        29.96S
VICKSBURG      SUNNY     74  63  68 S9        29.93F
$$

MSZ059>079-241600-
SOUTH MISSISSIPPI

CITY           SKY/WX    TMP DP  RH WIND       PRES   REMARKS
BROOKHAVEN     FAIR      72  64  78 CALM      29.99S
HATTIESBURG    SUNNY     76  63  64 CALM      29.99S
MCCOMB         MOSUNNY   69  63  81 SW6       29.99R
NATCHEZ        MOSUNNY   72  64  78 S9        29.95F
PINE BELT      SUNNY     73  61  64 SW3       30.00R
$$

MSZ080>082-241600-
COASTAL MISSISSIPPI

CITY           SKY/WX    TMP DP  RH WIND       PRES   REMARKS
BAY ST LOUIS   PTSUNNY   61  57  88 CALM      30.00R
BILOXI         MOSUNNY   74  67  78 SW5       30.00R
PASCAGOULA     MOSUNNY   73  65  75 CALM      29.99S
GULFPORT       PTSUNNY   76  65  68 W5        29.99S
$$



USA.gov is the U.S. government's official web portal to all federal, state and local government web resources and services.